DW9882 Weather Reports


time (UTC)temp
F
wind
direction
speed
knots
gust
knots
rain 1hr
in
rain 24hr
in
rain mn
in
humidity
%
barometer
mb
20260505102204 41 322 3.5 11.3 0.00 0.21 0.01 92 1014.1
20260505101704 41 12 5.2 13.9 0.00 0.21 0.01 92 1014.0
20260505101204 41 346 3.5 10.4 0.00 0.21 0.01 92 1013.9
20260505100704 42 354 3.5 12.2 0.00 0.21 0.01 92 1014.0
20260505100204 42 354 4.3 10.4 0.00 0.21 0.01 92 1014.0
20260505095704 42 2 2.6 7.8 0.00 0.21 0.01 92 1013.9
20260505095205 42 13 4.3 10.4 0.00 0.21 0.01 93 1013.8
20260505094704 42 18 0.0 5.2 0.00 0.21 0.01 93 1013.7
20260505094204 42 50 2.6 7.0 0.01 0.21 0.01 93 1013.6
20260505093704 42 9 1.7 8.7 0.01 0.21 0.01 93 1013.7
20260505093204 42 339 1.7 7.0 0.01 0.21 0.01 92 1013.7
20260505092704 43 318 2.6 11.3 0.01 0.21 0.01 92 1013.6
20260505091704 43 3 2.6 7.8 0.01 0.21 0.01 92 1013.7
20260505091204 43 329 1.7 4.3 0.01 0.21 0.01 92 1013.6
20260505090705 43 30 1.7 5.2 0.01 0.21 0.01 92 1013.5
20260505090203 43 351 2.6 13.0 0.01 0.21 0.01 92 1013.5
20260505085204 44 339 0.9 5.2 0.01 0.21 0.01 92 1013.6
20260505084704 44 316 1.7 8.7 0.01 0.21 0.01 91 1013.5
20260505084204 45 294 2.6 8.7 0.00 0.20 0.00 91 1013.4
20260505083704 45 4 2.6 8.7 0.00 0.20 0.00 91 1013.4
20260505083204 47 4 4.3 8.7 0.00 0.20 0.00 92 1013.4
20260505082703 47 355 0.9 6.1 0.00 0.20 0.00 93 1013.4
20260505081704 47 178 0.0 0.0 0.00 0.20 0.00 93 1013.4
20260505081204 46 178 0.0 0.0 0.00 0.20 0.00 92 1013.3
20260505080704 46 178 0.0 0.0 0.00 0.20 0.00 92 1013.4
20260505080205 46 178 0.0 0.0 0.00 0.20 0.00 92 1013.3
20260505075705 46 178 0.0 0.0 0.00 0.20 0.00 92 1013.3
20260505075204 46 178 0.0 0.0 0.00 0.20 0.00 92 1013.2
20260505074704 46 178 0.0 0.0 0.00 0.20 0.00 92 1013.2
20260505073704 46 178 0.0 0.0 0.00 0.20 0.00 92 1013.3
20260505072704 46 178 0.0 0.9 0.00 0.20 0.00 92 1013.3
20260505072205 47 178 0.0 0.0 0.00 0.20 0.00 92 1013.1
20260505071704 47 178 0.0 2.6 0.00 0.20 0.00 92 1013.3
20260505071204 47 177 0.0 2.6 0.00 0.20 0.00 92 1013.3
20260505070704 46 258 0.0 1.7 0.00 0.20 0.00 92 1013.4
20260505070204 46 258 0.0 0.0 0.00 0.20 0.00 91 1013.5
20260505064703 46 258 0.0 0.9 0.00 0.20 0.00 91 1013.4
20260505064204 46 258 0.0 0.9 0.00 0.20 0.00 91 1013.4
20260505063704 46 258 0.0 0.0 0.00 0.20 0.00 91 1013.4
20260505063204 46 258 0.0 0.0 0.00 0.20 0.00 91 1013.4
20260505062704 46 258 0.0 0.9 0.00 0.20 0.00 90 1013.4
20260505061704 46 258 0.0 0.0 0.00 0.20 0.00 90 1013.4
20260505061204 46 258 0.0 0.0 0.00 0.20 0.00 90 1013.4
20260505060705 46 258 0.0 0.0 0.00 0.20 0.00 90 1013.5
20260505060204 46 258 0.0 0.0 0.00 0.20 0.00 90 1013.5
20260505055703 46 258 0.0 0.0 0.00 0.20 0.20 90 1013.5
20260505055204 46 258 0.0 0.0 0.00 0.20 0.20 90 1013.5
20260505054704 46 258 0.0 0.0 0.00 0.20 0.20 89 1013.5
20260505053704 46 258 0.0 0.0 0.00 0.20 0.20 89 1013.4
20260505053205 47 258 0.0 0.0 0.00 0.20 0.20 89 1013.3
20260505052704 47 258 0.0 0.0 0.00 0.20 0.20 89 1013.3
20260505052204 47 258 0.0 0.0 0.00 0.20 0.20 89 1013.3
20260505051704 47 258 0.0 0.0 0.00 0.20 0.20 89 1013.4
20260505051203 47 258 0.0 0.0 0.00 0.20 0.20 89 1013.5
20260505050704 47 258 0.0 0.0 0.00 0.20 0.20 89 1013.7
20260505050204 47 258 0.0 0.0 0.00 0.20 0.20 89 1013.7
20260505041703 48 258 0.0 0.0 0.06 0.20 0.20 87 1013.8
20260505041203 48 258 0.0 0.0 0.07 0.20 0.20 86 1014.0
20260505040704 48 258 0.0 0.0 0.08 0.20 0.20 86 1014.0
20260505040204 48 258 0.0 0.0 0.10 0.20 0.20 86 1014.0
20260505035704 49 258 0.0 0.9 0.10 0.20 0.20 85 1014.0
20260505035204 49 258 0.0 0.0 0.10 0.19 0.19 85 1013.8
20260505034703 49 258 0.0 0.0 0.09 0.18 0.18 85 1013.8
20260505033704 49 258 0.0 0.9 0.07 0.16 0.16 84 1014.0
20260505033204 49 258 0.0 0.9 0.07 0.16 0.16 83 1014.2
20260505032703 49 258 0.0 0.0 0.06 0.15 0.15 82 1014.1
20260505032203 50 258 0.9 2.6 0.05 0.14 0.14 81 1014.0
20260505031204 51 296 0.9 4.3 0.04 0.13 0.13 79 1013.7
20260505030703 51 284 0.0 4.3 0.03 0.12 0.12 77 1013.6
20260505030204 52 334 0.9 5.2 0.01 0.10 0.10 74 1013.5
20260505025704 52 267 0.9 5.2 0.01 0.10 0.10 72 1013.3
20260505024704 52 269 0.0 2.6 0.00 0.09 0.09 70 1013.0
20260505023704 52 211 0.9 4.3 0.00 0.09 0.09 69 1012.8
20260505023203 53 4 0.9 2.6 0.00 0.09 0.09 68 1012.8
20260505022703 53 11 0.9 2.6 0.00 0.09 0.09 67 1012.6
20260505022203 53 5 2.6 7.0 0.00 0.09 0.09 65 1012.6
20260505021705 54 350 2.6 7.0 0.00 0.09 0.09 63 1012.5
20260505021205 54 355 1.7 4.3 0.00 0.09 0.09 62 1012.5
20260505020706 55 5 1.7 5.2 0.00 0.09 0.09 60 1012.5
20260505020205 55 3 2.6 10.4 0.00 0.09 0.09 59 1012.6
20260505015705 56 152 0.0 0.0 0.00 0.09 0.09 59 1012.5
20260505015205 56 152 0.0 0.0 0.00 0.09 0.09 58 1012.4
20260505014706 56 152 0.0 0.0 0.00 0.09 0.09 58 1012.3
20260505014206 56 152 0.0 0.0 0.00 0.09 0.09 58 1012.1
20260505013706 56 152 0.0 0.0 0.00 0.09 0.09 57 1012.1
20260505013206 56 152 0.0 0.0 0.00 0.09 0.09 57 1012.0
20260505012206 57 152 0.0 0.9 0.00 0.09 0.09 55 1012.2
20260505011705 57 152 0.0 0.0 0.00 0.09 0.09 55 1012.1
20260505011206 57 152 0.0 0.0 0.00 0.09 0.09 54 1012.0
20260505010706 57 152 0.0 0.0 0.00 0.09 0.09 55 1012.1
20260505005705 57 152 0.0 2.6 0.00 0.09 0.09 55 1012.1
20260505005205 57 152 0.9 2.6 0.00 0.09 0.09 54 1012.1
20260505004705 58 201 1.7 7.8 0.00 0.09 0.09 53 1012.1
20260505003205 59 5 0.0 2.6 0.00 0.09 0.09 51 1012.3
20260505002705 59 9 0.9 2.6 0.00 0.09 0.09 51 1012.2
20260505002205 59 254 0.0 1.7 0.00 0.09 0.09 50 1012.3
20260505000705 60 292 0.9 2.6 0.00 0.09 0.09 47 1012.0
20260505000206 60 292 0.0 2.6 0.00 0.09 0.09 48 1011.8
20260504235206 60 292 0.0 0.9 0.00 0.09 0.09 47 1011.6
20260504234705 60 292 1.7 2.6 0.00 0.09 0.09 46 1011.6
20260504234206 60 353 0.9 4.3 0.00 0.09 0.09 46 1011.4
20260504233705 60 358 2.6 7.0 0.00 0.09 0.09 45 1011.4
20260504232705 60 317 0.0 7.0 0.00 0.09 0.09 45 1011.3
20260504232205 60 286 1.7 7.0 0.00 0.09 0.09 44 1011.4
20260504231705 61 308 1.7 6.1 0.00 0.09 0.09 43 1011.3
20260504231206 61 352 3.5 10.4 0.00 0.09 0.09 42 1011.3
20260504230705 61 348 2.6 10.4 0.00 0.09 0.09 41 1011.2
20260504230205 62 11 4.3 10.4 0.00 0.09 0.09 40 1011.2
20260504225705 62 4 3.5 11.3 0.00 0.09 0.09 41 1011.2
20260504225205 63 0 5.2 8.7 0.00 0.09 0.09 40 1011.2
20260504224705 62 19 4.3 10.4 0.00 0.09 0.09 40 1011.2
20260504224205 62 341 2.6 7.8 0.00 0.09 0.09 41 1011.3
20260504223705 61 11 1.7 7.0 0.00 0.09 0.09 42 1011.2
20260504222705 61 340 0.9 5.2 0.00 0.09 0.09 42 1011.4
20260504222205 61 0 1.7 7.8 0.00 0.09 0.09 41 1011.4
20260504221706 62 10 4.3 10.4 0.00 0.09 0.09 40 1011.4
20260504221205 62 331 3.5 8.7 0.00 0.09 0.09 39 1011.3
20260504220705 62 345 2.6 8.7 0.00 0.09 0.09 38 1011.2
20260504220205 63 351 3.5 13.9 0.00 0.09 0.09 37 1011.0
20260504215705 63 27 4.3 10.4 0.00 0.09 0.09 35 1010.7
20260504215205 63 350 4.3 10.4 0.00 0.09 0.09 36 1010.6
20260504214706 64 8 1.7 13.0 0.00 0.09 0.09 35 1010.5
20260504214205 65 17 6.1 12.2 0.00 0.09 0.09 33 1010.4
20260504213705 67 20 4.3 17.4 0.00 0.09 0.09 32 1010.3
20260504213205 67 56 2.6 7.0 0.00 0.09 0.09 27 1009.9
20260504212706 67 52 2.6 5.2 0.00 0.09 0.09 30 1010.0
20260504212205 67 116 0.9 4.3 0.00 0.09 0.09 32 1009.9
20260504211705 66 193 0.9 2.6 0.00 0.09 0.09 34 1010.0
20260504211205 65 193 0.0 0.0 0.00 0.09 0.09 35 1010.1
20260504210705 65 193 0.0 0.9 0.00 0.09 0.09 34 1010.2
20260504210205 65 193 0.9 2.6 0.00 0.09 0.09 37 1010.3
20260504204705 63 325 0.0 1.7 0.00 0.09 0.09 43 1010.4
20260504204206 62 325 0.9 2.6 0.00 0.09 0.09 44 1010.5
20260504203205 60 325 0.0 1.7 0.00 0.09 0.09 47 1011.0
20260504202705 60 250 0.9 2.6 0.00 0.09 0.09 51 1011.0
20260504202205 60 11 0.0 0.9 0.01 0.09 0.09 49 1011.1
20260504201706 59 11 1.7 4.3 0.01 0.09 0.09 50 1011.2
20260504201204 58 47 1.7 4.3 0.03 0.09 0.09 52 1011.3
20260504200705 58 36 1.7 5.2 0.07 0.09 0.09 59 1011.4
20260504200206 57 9 1.7 7.0 0.09 0.09 0.09 58 1011.4
20260504195205 56 101 0.9 1.7 0.09 0.09 0.09 72 1011.1
20260504194705 56 101 0.0 0.9 0.09 0.09 0.09 74 1011.4
20260504194205 55 101 0.0 2.6 0.09 0.09 0.09 72 1011.5
20260504193705 56 188 0.9 1.7 0.09 0.09 0.09 72 1011.6
20260504192705 56 191 0.9 4.3 0.09 0.09 0.09 67 1011.8
20260504191704 59 198 2.6 7.8 0.08 0.08 0.08 57 1011.5
20260504191205 61 182 2.6 13.0 0.06 0.06 0.06 50 1011.2
20260504190705 63 200 6.1 22.6 0.02 0.02 0.02 41 1011.1
20260504190206 65 168 4.3 12.2 0.00 0.00 0.00 35 1010.9
20260504185205 67 177 7.8 13.9 0.00 0.00 0.00 27 1010.6
20260504184705 68 173 1.7 7.8 0.00 0.00 0.00 24 1010.6
20260504184205 68 32 5.2 11.3 0.00 0.00 0.00 23 1010.6
20260504183705 69 5 1.7 4.3 0.00 0.00 0.00 21 1010.4
20260504183206 69 78 2.6 8.7 0.00 0.00 0.00 23 1010.4
20260504182705 69 53 4.3 6.1 0.00 0.00 0.00 21 1010.3
20260504181705 70 297 3.5 7.8 0.00 0.00 0.00 22 1010.3
20260504181205 70 352 4.3 7.8 0.00 0.00 0.00 21 1010.3
20260504180705 71 339 3.5 10.4 0.00 0.00 0.00 21 1010.4
20260504180205 71 14 4.3 11.3 0.00 0.00 0.00 21 1010.4
20260504175705 72 14 3.5 8.7 0.00 0.00 0.00 22 1010.4
20260504175204 73 350 5.2 12.2 0.00 0.00 0.00 21 1010.5
20260504174705 72 358 1.7 5.2 0.00 0.00 0.00 23 1010.5
20260504174205 72 355 1.7 7.8 0.00 0.00 0.00 23 1010.6
20260504173705 72 22 3.5 7.8 0.00 0.00 0.00 22 1010.7
20260504172705 72 48 2.6 5.2 0.00 0.00 0.00 23 1011.0
20260504172205 72 34 2.6 5.2 0.00 0.00 0.00 23 1010.9
20260504171704 71 355 0.9 4.3 0.00 0.00 0.00 24 1011.0
20260504171205 71 71 1.7 4.3 0.00 0.00 0.00 24 1011.1
20260504160204 65 223 0.9 2.6 0.00 0.00 0.00 29 1011.8
20260504150705 60 224 0.9 2.6 0.00 0.00 0.00 33 1012.0
20260504150204 59 285 0.9 2.6 0.00 0.00 0.00 35 1012.0
20260504141204 53 254 0.0 0.0 0.00 0.00 0.00 44 1012.1
20260504140704 52 254 0.0 0.0 0.00 0.00 0.00 43 1012.1
20260504140205 52 254 0.0 0.0 0.00 0.00 0.00 44 1012.1
20260504130705 45 46 0.0 1.7 0.00 0.00 0.00 59 1012.0
20260504130205 45 46 0.0 0.9 0.00 0.00 0.00 58 1011.9
20260504110704 42 46 0.0 0.0 0.00 0.00 0.00 59 1011.8
20260504110204 42 46 0.0 0.0 0.00 0.00 0.00 59 1011.9